TimeCDT,TemperatureF,Dew PointF,Humidity,Sea Level PressureIn,VisibilityMPH,Wind Direction,Wind SpeedMPH,Gust SpeedMPH,PrecipitationIn,Events,Conditions,WindDirDegrees,DateUTC
12:15 AM,28.2,24.8,87,30.29,10.0,South,12.7,-,N/A,,Clear,170,2012-10-27 05:15:00
12:35 AM,28.0,24.8,88,30.29,10.0,South,10.4,-,N/A,,Clear,180,2012-10-27 05:35:00
12:55 AM,28.0,24.8,88,30.29,10.0,South,9.2,-,N/A,,Clear,180,2012-10-27 05:55:00
1:15 AM,28.4,25.2,88,30.29,10.0,South,9.2,-,N/A,,Clear,190,2012-10-27 06:15:00
1:35 AM,28.0,24.8,88,30.28,10.0,South,9.2,-,N/A,,Clear,180,2012-10-27 06:35:00
2:15 AM,28.2,24.8,87,30.26,10.0,SSE,8.1,-,N/A,,Clear,160,2012-10-27 07:15:00
2:55 AM,27.5,24.8,90,30.25,10.0,SSE,10.4,-,N/A,,Clear,160,2012-10-27 07:55:00
3:15 AM,27.9,25.2,90,30.24,10.0,South,11.5,-,N/A,,Clear,170,2012-10-27 08:15:00
3:35 AM,27.3,24.8,90,30.24,10.0,South,9.2,-,N/A,,Clear,180,2012-10-27 08:35:00
3:55 AM,26.6,24.3,91,30.24,10.0,South,5.8,-,N/A,,Clear,190,2012-10-27 08:55:00
4:15 AM,25.7,23.4,91,30.23,10.0,SSW,4.6,-,N/A,,Clear,210,2012-10-27 09:15:00
4:35 AM,26.6,24.3,91,30.22,10.0,SSW,6.9,-,N/A,,Clear,210,2012-10-27 09:35:00
4:55 AM,26.8,24.4,91,30.23,10.0,SSW,5.8,-,N/A,,Clear,210,2012-10-27 09:55:00
5:15 AM,27.5,25.3,92,30.23,10.0,SSW,5.8,-,N/A,,Clear,210,2012-10-27 10:15:00
5:35 AM,28.2,25.7,90,30.23,10.0,SW,6.9,-,N/A,,Clear,220,2012-10-27 10:35:00
5:55 AM,28.0,25.3,90,30.23,10.0,SSW,8.1,-,N/A,,Scattered Clouds,210,2012-10-27 10:55:00
6:15 AM,28.0,25.5,90,30.22,10.0,SSW,8.1,-,N/A,,Scattered Clouds,200,2012-10-27 11:15:00
6:35 AM,27.7,25.0,90,30.21,10.0,South,8.1,-,N/A,,Clear,190,2012-10-27 11:35:00
6:55 AM,27.1,24.8,91,30.20,10.0,South,10.4,-,N/A,,Clear,180,2012-10-27 11:55:00
7:15 AM,27.5,25.3,92,30.20,10.0,South,9.2,-,N/A,,Clear,180,2012-10-27 12:15:00
7:35 AM,27.5,25.0,90,30.19,10.0,South,9.2,-,N/A,,Clear,190,2012-10-27 12:35:00
7:55 AM,27.5,24.4,88,30.20,10.0,South,6.9,-,N/A,,Clear,190,2012-10-27 12:55:00
8:15 AM,26.1,23.0,88,30.20,10.0,South,4.6,-,N/A,,Clear,180,2012-10-27 13:15:00
8:35 AM,26.6,23.4,88,30.21,10.0,South,3.5,-,N/A,,Clear,180,2012-10-27 13:35:00
8:55 AM,27.5,24.1,87,30.21,10.0,South,4.6,-,N/A,,Clear,170,2012-10-27 13:55:00
9:35 AM,30.9,25.9,82,30.20,10.0,South,10.4,-,N/A,,Clear,180,2012-10-27 14:35:00
10:15 AM,33.6,27.1,77,30.21,10.0,South,12.7,-,N/A,,Clear,180,2012-10-27 15:15:00
10:35 AM,35.1,27.5,74,30.19,10.0,South,16.1,24.2,N/A,,Clear,190,2012-10-27 15:35:00
10:55 AM,36.7,27.5,69,30.20,10.0,South,19.6,23.0,N/A,,Clear,190,2012-10-27 15:55:00
11:15 AM,37.6,27.1,66,30.20,10.0,South,16.1,23.0,N/A,,Clear,190,2012-10-27 16:15:00
11:35 AM,38.3,27.3,65,30.19,10.0,SSW,15.0,-,N/A,,Clear,200,2012-10-27 16:35:00
11:55 AM,39.2,27.5,63,30.17,10.0,SSW,15.0,18.4,N/A,,Clear,200,2012-10-27 16:55:00
12:15 PM,38.8,27.1,63,30.17,10.0,South,15.0,-,N/A,,Scattered Clouds,190,2012-10-27 17:15:00
12:35 PM,40.6,27.9,60,30.17,10.0,South,9.2,-,N/A,,Scattered Clouds,190,2012-10-27 17:35:00
12:55 PM,42.1,28.2,58,30.17,10.0,SW,10.4,17.3,N/A,,Scattered Clouds,220,2012-10-27 17:55:00
1:15 PM,43.0,28.4,56,30.15,10.0,SSW,10.4,-,N/A,,Scattered Clouds,200,2012-10-27 18:15:00
1:35 PM,43.3,28.2,55,30.14,10.0,SSW,8.1,-,N/A,,Scattered Clouds,200,2012-10-27 18:35:00
1:55 PM,45.0,28.0,52,30.12,10.0,SW,6.9,-,N/A,,Mostly Cloudy,230,2012-10-27 18:55:00
2:15 PM,46.4,28.6,50,30.11,10.0,South,9.2,-,N/A,,Mostly Cloudy,190,2012-10-27 19:15:00
2:35 PM,47.1,28.0,48,30.10,10.0,South,8.1,-,N/A,,Scattered Clouds,180,2012-10-27 19:35:00
2:55 PM,47.7,27.7,46,30.10,10.0,SSW,4.6,-,N/A,,Scattered Clouds,200,2012-10-27 19:55:00
3:15 PM,48.6,26.4,42,30.10,10.0,Calm,Calm,-,N/A,,Clear,0,2012-10-27 20:15:00
3:35 PM,50.0,26.6,40,30.09,10.0,SSW,4.6,-,N/A,,Clear,210,2012-10-27 20:35:00
3:55 PM,50.9,25.3,37,30.09,10.0,West,3.5,-,N/A,,Mostly Cloudy,260,2012-10-27 20:55:00
4:15 PM,49.5,24.1,37,30.09,10.0,Calm,Calm,-,N/A,,Scattered Clouds,0,2012-10-27 21:15:00
4:35 PM,50.0,24.1,36,30.09,10.0,Calm,Calm,-,N/A,,Clear,0,2012-10-27 21:35:00
4:55 PM,51.6,23.0,33,30.10,10.0,North,4.6,-,N/A,,Clear,360,2012-10-27 21:55:00
5:15 PM,50.9,22.8,33,30.10,10.0,WNW,4.6,-,N/A,,Clear,300,2012-10-27 22:15:00
5:35 PM,50.9,23.0,34,30.10,10.0,NW,11.5,-,N/A,,Clear,310,2012-10-27 22:35:00
5:55 PM,50.0,23.5,36,30.10,10.0,WNW,8.1,-,N/A,,Clear,300,2012-10-27 22:55:00
6:15 PM,46.8,24.4,42,30.11,10.0,NNW,5.8,-,N/A,,Clear,330,2012-10-27 23:15:00
6:35 PM,45.5,24.6,44,30.11,10.0,NW,3.5,-,N/A,,Clear,320,2012-10-27 23:35:00
6:55 PM,46.4,24.8,43,30.12,10.0,Calm,Calm,-,N/A,,Clear,0,2012-10-27 23:55:00
7:15 PM,44.1,25.2,47,30.12,10.0,Calm,Calm,-,N/A,,Clear,0,2012-10-28 00:15:00
7:35 PM,44.4,24.8,46,30.12,10.0,SW,3.5,-,N/A,,Clear,230,2012-10-28 00:35:00
7:55 PM,43.5,24.8,48,30.13,10.0,WSW,3.5,-,N/A,,Clear,250,2012-10-28 00:55:00
8:15 PM,37.6,25.9,63,30.14,10.0,SSW,5.8,-,N/A,,Clear,210,2012-10-28 01:15:00
8:35 PM,37.6,25.7,62,30.14,10.0,SW,5.8,-,N/A,,Clear,220,2012-10-28 01:35:00
8:55 PM,36.9,25.9,64,30.15,10.0,SW,4.6,-,N/A,,Clear,230,2012-10-28 01:55:00
9:15 PM,35.4,25.7,68,30.15,10.0,SW,5.8,-,N/A,,Scattered Clouds,230,2012-10-28 02:15:00
9:35 PM,36.9,25.5,64,30.15,10.0,WSW,4.6,-,N/A,,Clear,250,2012-10-28 02:35:00
9:55 PM,33.3,25.0,72,30.15,10.0,WSW,5.8,-,N/A,,Clear,240,2012-10-28 02:55:00
10:15 PM,32.2,25.3,76,30.15,10.0,SW,4.6,-,N/A,,Scattered Clouds,230,2012-10-28 03:15:00
10:35 PM,33.4,26.6,76,30.16,10.0,SSW,5.8,-,N/A,,Mostly Cloudy,210,2012-10-28 03:35:00
10:55 PM,34.3,27.0,74,30.17,10.0,WSW,5.8,-,N/A,,Overcast,250,2012-10-28 03:55:00
11:15 PM,34.3,26.6,73,30.17,10.0,SW,8.1,-,N/A,,Overcast,230,2012-10-28 04:15:00
11:35 PM,34.7,27.7,76,30.18,10.0,WSW,5.8,-,N/A,,Overcast,240,2012-10-28 04:35:00
11:55 PM,34.9,27.5,74,30.17,10.0,WSW,5.8,-,N/A,,Overcast,240,2012-10-28 04:55:00